Simultaneous Nadir Overpasses (SNOs) Predictions

Prediction of SNOs between GOES-15 and NOAA-20 Satellite Orbit:

Table of predicted SNOs for the next 14.0 days since TLE Epoch: 6/11/2022
Index Date Time (GOES-15) GOES-15 Lat,Lon NOAA-20 Lat,Lon Distance(km) Time Diff (sec)
1 06/11/2022 09:49:44 0.00,-128.29 -0.52,-125.85 277.73 80
2 06/12/2022 22:09:01 0.03,-128.31 -0.58,-131.17 325.09 80
3 06/13/2022 21:52:55 0.02,-128.33 0.41,-126.63 193.55 80
4 06/15/2022 10:12:03 -0.05,-128.36 0.74,-131.90 404.52 80
5 06/16/2022 09:55:57 -0.04,-128.37 -0.25,-127.37 113.50 80
6 06/17/2022 22:15:14 0.07,-128.37 -0.91,-132.68 490.92 80
7 06/18/2022 21:59:08 0.05,-128.39 0.08,-128.14 27.53 80
8 06/21/2022 09:59:31 -0.06,-128.43 0.02,-128.89 52.30 80
9 06/22/2022 09:43:25 -0.05,-128.44 -0.97,-124.35 465.71 80
10 06/23/2022 22:02:42 0.08,-128.44 -0.18,-129.67 139.16 80
11 06/24/2022 21:46:36 0.07,-128.45 0.81,-125.13 378.78 80
